Regional Weather Roundup
Issued by NWS

Home | Current Version | Previous Version | Text Only | Print | Product List | Glossary Off
Versions: 1 2 3 4 5 6 7 8 9 10 11 12 13 14 15 16 17 18 19 20 21 22 23 24 25 26 27 28 29 30 31 32 33 34 35 36 37 38 39 40 41 42 43 44 45 46 47 48 49 50

000
ASUS43 KLMK 290102
RWRKY
KENTUCKY REGIONAL WEATHER ROUNDUP
NATIONAL WEATHER SERVICE LOUISVILLE KY
800 PM EST FRI NOV 28 2014

NOTE "FAIR" INDICATES FEW OR NO CLOUDS BELOW 12,000 FEET
WITH NO SIGNIFICANT WEATHER AND/OR OBSTRUCTIONS TO VISIBILITY.

KYZ001>023-026-027-061>063-070>075-290200-
WESTERN AND SOUTH CENTRAL KENTUCKY

CITY           SKY/WX    TMP DP  RH WIND       PRES   REMARKS
PADUCAH        CLEAR     43  26  51 S5        30.07S
HENDERSON      MOCLDY    37  25  60 SE6       30.08F WCI  33
OWENSBORO      MOCLDY    38  27  65 S10       30.10F WCI  31
HOPKINSVILLE   PTCLDY    43  24  47 S12       30.11F
BOWLING GREEN  PTCLDY    39  21  48 S7        30.15F WCI  34
GLASGOW        NOT AVBL
$$

KYZ024-025-028>034-038-045-046-053-290200-
NORTH CENTRAL KENTUCKY

CITY           SKY/WX    TMP DP  RH WIND       PRES   REMARKS
LOUISVILLE/SDF CLOUDY    37  21  52 S10       30.13F WCI  30
LOUISVILLE/LOU MOCLDY    37  20  50 SE7       30.13F WCI  32
FORT KNOX      CLOUDY    36  21  54 SE9       30.11F WCI  29
$$

KYZ035>037-039>044-047>052-055>060-089>105-290200-
NORTHEAST KENTUCKY

CITY           SKY/WX    TMP DP  RH WIND       PRES   REMARKS
LEXINGTON      PTCLDY    32  19  58 SE9       30.15F WCI  24
COVINGTON      CLOUDY    33  17  51 S14       30.12F WCI  23
FRANKFORT      PTCLDY    33  18  53 SE9       30.13F WCI  25
$$

KYZ054-064>069-076>088-106>120-290200-
SOUTHEAST KENTUCKY

CITY           SKY/WX    TMP DP  RH WIND       PRES   REMARKS
JACKSON        CLEAR     33  16  49 SE5       30.19F WCI  29
LONDON         CLEAR     34  17  50 S3        30.19F
SOMERSET       NOT AVBL
MIDDLESBORO    NOT AVBL
MONTICELLO     CLEAR     38  20  48 S9        30.21F WCI  31
$$



USA.gov is the U.S. government's official web portal to all federal, state and local government web resources and services.